THY250 LOWG-LTAC

Flight info

Callsign THY250
Flight time 2h 1m
Altitude 35000
Route NIKAB DCT KEROP DCT DITAX DCT UBOGU DCT RONBU DCT ARTAT DCT NELNI DCT AKCAK DCT TUNCA DCT IVNAP DCT SALGO
Aircraft A320/M-SDE3FGHIRWY/LB1

Departure

Time 2026-05-05 19:54
Airport Graz Airport (LOWG)

Arrival

Time 2026-05-05 21:56
Airport Esenboğa International Airport (LTAC)
Time Latitude Longitude Altitude Speed Heading
2026-05-05 19:23 46.99885 15.44239 1117 ft 0 kts 351°
2026-05-05 19:46 46.99884 15.44240 1116 ft 2 kts 351°
2026-05-05 19:46 46.99867 15.44243 1109 ft 4 kts 353°
2026-05-05 19:47 46.99840 15.44248 1111 ft 4 kts 349°
2026-05-05 19:47 46.99818 15.44259 1113 ft 4 kts 298°
2026-05-05 19:47 46.99816 15.44267 1108 ft 0 kts 260°
2026-05-05 19:50 46.99815 15.44260 1114 ft 2 kts 260°
2026-05-05 19:50 46.99812 15.44217 1113 ft 6 kts 272°
2026-05-05 19:51 46.99843 15.44162 1115 ft 9 kts 339°
2026-05-05 19:51 46.99911 15.44145 1115 ft 11 kts 351°
2026-05-05 19:51 46.99995 15.44120 1114 ft 13 kts 350°
2026-05-05 19:51 47.00095 15.44093 1117 ft 16 kts 349°
2026-05-05 19:52 47.00211 15.44060 1114 ft 18 kts 349°
2026-05-05 19:52 47.00323 15.43978 1113 ft 19 kts 314°
2026-05-05 19:52 47.00405 15.43809 1119 ft 21 kts 302°
2026-05-05 19:52 47.00424 15.43650 1122 ft 12 kts 250°
2026-05-05 19:53 47.00348 15.43621 1122 ft 13 kts 167°
2026-05-05 19:53 47.00182 15.43666 1117 ft 51 kts 169°
2026-05-05 19:53 46.99635 15.43820 1111 ft 108 kts 169°
2026-05-05 19:53 46.98740 15.44069 1103 ft 152 kts 170°
2026-05-05 19:54 46.97599 15.44378 1373 ft 172 kts 169°
2026-05-05 19:54 46.96420 15.44701 1989 ft 175 kts 171°
2026-05-05 19:54 46.95230 15.45030 2713 ft 174 kts 173°
2026-05-05 19:54 46.94119 15.45861 3108 ft 198 kts 135°
2026-05-05 19:55 46.93499 15.47825 3300 ft 229 kts 109°
2026-05-05 19:55 46.93148 15.50220 3493 ft 254 kts 103°
2026-05-05 19:55 46.92848 15.52892 3797 ft 278 kts 102°
2026-05-05 19:55 46.92533 15.55757 4392 ft 290 kts 101°
2026-05-05 19:56 46.92186 15.58700 5078 ft 297 kts 102°
2026-05-05 19:56 46.91801 15.61685 5842 ft 301 kts 103°
2026-05-05 19:56 46.91386 15.64711 6585 ft 305 kts 103°
2026-05-05 19:56 46.90941 15.67826 7397 ft 305 kts 104°
2026-05-05 19:57 46.90497 15.70858 8206 ft 305 kts 103°
2026-05-05 19:57 46.90050 15.73883 9063 ft 303 kts 105°
2026-05-05 19:57 46.89604 15.76883 9865 ft 302 kts 105°
2026-05-05 19:57 46.89149 15.79939 10261 ft 317 kts 105°
2026-05-05 19:58 46.88660 15.83199 10392 ft 340 kts 105°
2026-05-05 19:58 46.88137 15.86679 10530 ft 360 kts 104°
2026-05-05 19:58 46.87602 15.90273 10942 ft 369 kts 104°
2026-05-05 19:58 46.87051 15.94008 11493 ft 373 kts 104°
2026-05-05 19:59 46.86508 15.97688 12055 ft 378 kts 104°
2026-05-05 19:59 46.85949 16.01460 12629 ft 381 kts 104°
2026-05-05 19:59 46.85382 16.05262 13193 ft 385 kts 104°
2026-05-05 19:59 46.84808 16.09104 13745 ft 389 kts 104°
2026-05-05 20:00 46.84228 16.12975 14256 ft 392 kts 104°
2026-05-05 20:00 46.83641 16.16871 14742 ft 394 kts 104°
2026-05-05 20:00 46.83044 16.20799 15233 ft 397 kts 104°
2026-05-05 20:00 46.82443 16.24752 15726 ft 400 kts 104°
2026-05-05 20:01 46.81839 16.28725 16220 ft 402 kts 104°
2026-05-05 20:01 46.81227 16.32728 16716 ft 405 kts 104°
2026-05-05 20:01 46.80609 16.36754 17203 ft 408 kts 104°
2026-05-05 20:01 46.79987 16.40805 17708 ft 411 kts 104°
2026-05-05 20:02 46.79360 16.44885 18200 ft 413 kts 104°
2026-05-05 20:02 46.78728 16.48990 18635 ft 416 kts 104°
2026-05-05 20:02 46.78093 16.53115 19128 ft 417 kts 105°
2026-05-05 20:02 46.77452 16.57259 19608 ft 419 kts 105°
2026-05-05 20:03 46.76806 16.61409 20068 ft 421 kts 105°
2026-05-05 20:03 46.76166 16.65524 20508 ft 423 kts 104°
2026-05-05 20:03 46.75514 16.69721 20935 ft 425 kts 104°
2026-05-05 20:03 46.74857 16.73931 21349 ft 427 kts 105°
2026-05-05 20:04 46.74194 16.78156 21740 ft 429 kts 105°
2026-05-05 20:04 46.73526 16.82413 22139 ft 431 kts 105°
2026-05-05 20:04 46.72856 16.86681 22537 ft 433 kts 105°
2026-05-05 20:04 46.72177 16.90981 22946 ft 435 kts 105°
2026-05-05 20:05 46.71494 16.95287 23345 ft 437 kts 105°
2026-05-05 20:05 46.70802 16.99618 23694 ft 439 kts 105°
2026-05-05 20:05 46.70107 17.03965 23999 ft 441 kts 105°
2026-05-05 20:05 46.69412 17.08328 24303 ft 443 kts 105°
2026-05-05 20:06 46.68714 17.12705 24602 ft 445 kts 105°
2026-05-05 20:06 46.68006 17.17114 24884 ft 448 kts 105°
2026-05-05 20:06 46.67293 17.21536 25177 ft 450 kts 105°
2026-05-05 20:06 46.66575 17.25981 25475 ft 452 kts 105°
2026-05-05 20:07 46.65857 17.30436 25798 ft 453 kts 105°
2026-05-05 20:07 46.65143 17.34851 26124 ft 454 kts 105°
2026-05-05 20:07 46.64414 17.39338 26425 ft 456 kts 105°
2026-05-05 20:07 46.63679 17.43829 26787 ft 457 kts 105°
2026-05-05 20:08 46.62930 17.48376 27222 ft 456 kts 105°
2026-05-05 20:08 46.62201 17.52797 27633 ft 455 kts 105°
2026-05-05 20:08 46.61443 17.57269 28053 ft 454 kts 106°
2026-05-05 20:08 46.60631 17.61707 28477 ft 453 kts 107°
2026-05-05 20:09 46.59779 17.66111 28883 ft 452 kts 108°
2026-05-05 20:09 46.58907 17.70496 29328 ft 451 kts 108°
2026-05-05 20:09 46.58029 17.74884 29771 ft 451 kts 108°
2026-05-05 20:09 46.57161 17.79255 30170 ft 450 kts 108°
2026-05-05 20:10 46.56305 17.83622 30519 ft 450 kts 107°
2026-05-05 20:10 46.55456 17.87997 30869 ft 450 kts 107°
2026-05-05 20:10 46.54612 17.92370 31227 ft 449 kts 107°
2026-05-05 20:10 46.53767 17.96739 31568 ft 449 kts 107°
2026-05-05 20:11 46.52919 18.01104 31927 ft 449 kts 107°
2026-05-05 20:11 46.52068 18.05461 32313 ft 447 kts 107°
2026-05-05 20:11 46.51211 18.09797 32732 ft 446 kts 107°
2026-05-05 20:11 46.50354 18.14118 33114 ft 445 kts 107°
2026-05-05 20:12 46.49501 18.18431 33475 ft 445 kts 107°
2026-05-05 20:12 46.48648 18.22736 33822 ft 444 kts 107°
2026-05-05 20:12 46.47794 18.27045 34106 ft 444 kts 107°
2026-05-05 20:12 46.46939 18.31350 34370 ft 444 kts 107°
2026-05-05 20:13 46.46082 18.35652 34626 ft 444 kts 107°
2026-05-05 20:13 46.45224 18.39953 34854 ft 445 kts 107°
2026-05-05 20:13 46.44363 18.44271 34936 ft 447 kts 107°
2026-05-05 20:14 46.42608 18.53044 34954 ft 459 kts 107°
2026-05-05 20:14 46.40820 18.61916 34954 ft 463 kts 107°
2026-05-05 20:15 46.38999 18.70881 34952 ft 464 kts 107°
2026-05-05 20:15 46.37181 18.79846 34955 ft 464 kts 107°
2026-05-05 20:16 46.35351 18.88787 34958 ft 465 kts 107°
2026-05-05 20:16 46.33506 18.97759 34962 ft 465 kts 107°
2026-05-05 20:17 46.31654 19.06720 34966 ft 465 kts 107°
2026-05-05 20:17 46.29796 19.15683 34964 ft 465 kts 107°
2026-05-05 20:18 46.27942 19.24642 34962 ft 465 kts 107°
2026-05-05 20:18 46.26068 19.33601 34969 ft 465 kts 108°
2026-05-05 20:19 46.24199 19.42482 34969 ft 465 kts 108°
2026-05-05 20:19 46.22311 19.51430 34967 ft 465 kts 107°
2026-05-05 20:20 46.20418 19.60357 34967 ft 465 kts 107°
2026-05-05 20:20 46.18519 19.69293 34961 ft 466 kts 108°
2026-05-05 20:21 46.16413 19.78129 34967 ft 466 kts 111°
2026-05-05 20:21 46.14095 19.86851 34958 ft 466 kts 112°
2026-05-05 20:22 46.11762 19.95564 34956 ft 466 kts 111°
2026-05-05 20:22 46.09480 20.04310 34958 ft 466 kts 111°
2026-05-05 20:23 46.07217 20.13064 34962 ft 466 kts 111°
2026-05-05 20:23 46.04942 20.21804 34970 ft 466 kts 111°
2026-05-05 20:24 46.02653 20.30535 34962 ft 466 kts 111°
2026-05-05 20:24 46.00355 20.39259 34960 ft 466 kts 111°
2026-05-05 20:25 45.98048 20.47971 34957 ft 466 kts 111°
2026-05-05 20:25 45.95753 20.56622 34966 ft 466 kts 111°
2026-05-05 20:26 45.93439 20.65327 34960 ft 466 kts 111°
2026-05-05 20:26 45.91109 20.74030 34965 ft 467 kts 111°
2026-05-05 20:27 45.88779 20.82723 34963 ft 467 kts 111°
2026-05-05 20:27 45.86443 20.91402 34967 ft 467 kts 111°
2026-05-05 20:28 45.84100 21.00083 34966 ft 466 kts 111°
2026-05-05 20:28 45.81751 21.08745 34960 ft 466 kts 111°
2026-05-05 20:29 45.79392 21.17396 34959 ft 466 kts 111°
2026-05-05 20:29 45.77024 21.26050 34957 ft 466 kts 111°
2026-05-05 20:30 45.74657 21.34693 34969 ft 466 kts 111°
2026-05-05 20:30 45.72278 21.43340 34967 ft 466 kts 111°
2026-05-05 20:31 45.69900 21.51959 34979 ft 466 kts 111°
2026-05-05 20:31 45.67527 21.60517 34980 ft 465 kts 111°
2026-05-05 20:32 45.65133 21.69112 34985 ft 465 kts 111°
2026-05-05 20:32 45.62740 21.77701 34994 ft 465 kts 111°
2026-05-05 20:33 45.60747 21.84822 34994 ft 465 kts 111°
2026-05-05 20:33 45.58340 21.93387 35002 ft 465 kts 111°
2026-05-05 20:34 45.55927 22.01940 35007 ft 464 kts 111°
2026-05-05 20:34 45.53510 22.10477 35013 ft 464 kts 111°
2026-05-05 20:35 45.51082 22.19006 35025 ft 464 kts 111°
2026-05-05 20:35 45.48655 22.27524 35027 ft 464 kts 111°
2026-05-05 20:36 45.46226 22.36030 35032 ft 464 kts 111°
2026-05-05 20:36 45.43772 22.44527 35045 ft 464 kts 112°
2026-05-05 20:37 45.41300 22.53002 35041 ft 464 kts 112°
2026-05-05 20:37 45.38820 22.61478 35050 ft 464 kts 112°
2026-05-05 20:38 45.36341 22.69946 35051 ft 464 kts 111°
2026-05-05 20:38 45.33859 22.78413 35056 ft 464 kts 111°
2026-05-05 20:39 45.31366 22.86868 35057 ft 464 kts 112°
2026-05-05 20:39 45.28884 22.95253 35057 ft 464 kts 112°
2026-05-05 20:40 45.26377 23.03701 35069 ft 464 kts 111°
2026-05-05 20:40 45.23869 23.12134 35064 ft 464 kts 111°
2026-05-05 20:41 45.21357 23.20555 35062 ft 463 kts 111°
2026-05-05 20:41 45.18841 23.28972 35055 ft 463 kts 111°
2026-05-05 20:42 45.16313 23.37360 35061 ft 463 kts 111°
2026-05-05 20:42 45.13780 23.45751 35054 ft 463 kts 111°
2026-05-05 20:43 45.11248 23.54134 35052 ft 463 kts 111°
2026-05-05 20:43 45.08702 23.62504 35039 ft 463 kts 112°
2026-05-05 20:44 45.06144 23.70876 35044 ft 464 kts 111°
2026-05-05 20:44 45.03582 23.79256 35039 ft 464 kts 111°
2026-05-05 20:45 44.99753 23.91758 35036 ft 464 kts 111°
2026-05-05 20:45 44.97181 24.00117 35042 ft 464 kts 111°
2026-05-05 20:46 44.94592 24.08468 35032 ft 464 kts 111°
2026-05-05 20:46 44.91997 24.16815 35030 ft 464 kts 111°
2026-05-05 20:47 44.89404 24.25157 35021 ft 464 kts 111°
2026-05-05 20:47 44.86800 24.33488 35033 ft 464 kts 111°
2026-05-05 20:48 44.84188 24.41822 35030 ft 464 kts 111°
2026-05-05 20:48 44.81575 24.50143 35028 ft 464 kts 111°
2026-05-05 20:49 44.78955 24.58454 35021 ft 464 kts 111°
2026-05-05 20:49 44.76324 24.66753 35033 ft 465 kts 112°
2026-05-05 20:50 44.73458 24.74849 35028 ft 466 kts 115°
2026-05-05 20:50 44.70337 24.82859 35028 ft 467 kts 116°
2026-05-05 20:51 44.67212 24.90853 35027 ft 467 kts 116°
2026-05-05 20:51 44.64152 24.98893 35038 ft 466 kts 115°
2026-05-05 20:52 44.61116 25.06929 35044 ft 466 kts 115°
2026-05-05 20:52 44.58058 25.14957 35043 ft 466 kts 116°
2026-05-05 20:53 44.54990 25.22953 35042 ft 466 kts 116°
2026-05-05 20:53 44.51909 25.30942 35056 ft 465 kts 116°
2026-05-05 20:54 44.48861 25.38860 35053 ft 464 kts 116°
2026-05-05 20:54 44.45793 25.46809 35036 ft 464 kts 116°
2026-05-05 20:55 44.42721 25.54743 35032 ft 464 kts 116°
2026-05-05 20:55 44.39632 25.62681 35045 ft 464 kts 116°
2026-05-05 20:56 44.36539 25.70597 35047 ft 464 kts 116°
2026-05-05 20:56 44.33445 25.78508 35046 ft 464 kts 116°
2026-05-05 20:57 44.30347 25.86410 35061 ft 464 kts 116°
2026-05-05 20:57 44.27243 25.94316 35059 ft 464 kts 116°
2026-05-05 20:58 44.24158 26.02150 35053 ft 464 kts 116°
2026-05-05 20:58 44.21036 26.10025 35051 ft 463 kts 116°
2026-05-05 20:59 44.17921 26.17884 35065 ft 463 kts 116°
2026-05-05 20:59 44.14804 26.25723 35061 ft 462 kts 116°
2026-05-05 21:00 44.11685 26.33556 35060 ft 462 kts 116°
2026-05-05 21:00 44.08565 26.41364 35061 ft 461 kts 116°
2026-05-05 21:01 44.05424 26.49148 35061 ft 462 kts 118°
2026-05-05 21:01 44.01757 26.56492 35060 ft 463 kts 123°
2026-05-05 21:02 43.98036 26.63732 35058 ft 463 kts 123°
2026-05-05 21:02 43.94280 26.71020 35051 ft 464 kts 123°
2026-05-05 21:03 43.90526 26.78301 35067 ft 464 kts 123°
2026-05-05 21:03 43.86764 26.85572 35072 ft 464 kts 123°
2026-05-05 21:04 43.82993 26.92845 35074 ft 464 kts 123°
2026-05-05 21:04 43.79226 27.00101 35093 ft 464 kts 123°
2026-05-05 21:05 43.75445 27.07351 35092 ft 464 kts 123°
2026-05-05 21:05 43.71696 27.14528 35095 ft 463 kts 123°
2026-05-05 21:06 43.67922 27.21731 35097 ft 462 kts 124°
2026-05-05 21:06 43.64144 27.28917 35105 ft 462 kts 124°
2026-05-05 21:07 43.60368 27.36077 35105 ft 461 kts 124°
2026-05-05 21:07 43.56603 27.43222 35101 ft 460 kts 124°
2026-05-05 21:08 43.52833 27.50339 35106 ft 460 kts 124°
2026-05-05 21:08 43.49062 27.57443 35100 ft 459 kts 125°
2026-05-05 21:09 43.45295 27.64536 35108 ft 458 kts 125°
2026-05-05 21:09 43.41527 27.71618 35105 ft 458 kts 125°
2026-05-05 21:10 43.37752 27.78677 35107 ft 458 kts 125°
2026-05-05 21:10 43.33978 27.85721 35098 ft 457 kts 125°
2026-05-05 21:11 43.30206 27.92751 35097 ft 457 kts 125°
2026-05-05 21:11 43.26430 27.99785 35099 ft 458 kts 125°
2026-05-05 21:12 43.22647 28.06810 35105 ft 458 kts 125°
2026-05-05 21:12 43.18857 28.13824 35112 ft 458 kts 125°
2026-05-05 21:13 43.15083 28.20782 35110 ft 458 kts 125°
2026-05-05 21:13 43.11274 28.27795 35109 ft 458 kts 125°
2026-05-05 21:14 43.07469 28.34783 35110 ft 459 kts 125°
2026-05-05 21:14 43.03650 28.41776 35104 ft 459 kts 125°
2026-05-05 21:15 42.99828 28.48773 35101 ft 460 kts 125°
2026-05-05 21:15 42.95998 28.55766 35114 ft 460 kts 125°
2026-05-05 21:16 42.92151 28.62753 35104 ft 461 kts 125°
2026-05-05 21:16 42.88295 28.69752 35105 ft 461 kts 125°
2026-05-05 21:17 42.84458 28.76693 35100 ft 461 kts 125°
2026-05-05 21:17 42.80593 28.83673 35112 ft 462 kts 124°
2026-05-05 21:18 42.76725 28.90657 35108 ft 462 kts 124°
2026-05-05 21:18 42.72844 28.97642 35095 ft 463 kts 125°
2026-05-05 21:19 42.68954 29.04621 35095 ft 463 kts 125°
2026-05-05 21:19 42.65059 29.11592 35094 ft 463 kts 125°
2026-05-05 21:20 42.61160 29.18554 35096 ft 463 kts 125°
2026-05-05 21:20 42.57912 29.24344 35097 ft 464 kts 125°
2026-05-05 21:21 42.53999 29.31293 35113 ft 464 kts 124°
2026-05-05 21:21 42.50079 29.38248 35106 ft 464 kts 124°
2026-05-05 21:22 42.46131 29.45238 35103 ft 464 kts 124°
2026-05-05 21:22 42.42219 29.52134 35102 ft 465 kts 124°
2026-05-05 21:23 42.38283 29.59075 35111 ft 465 kts 124°
2026-05-05 21:23 42.33851 29.65472 35096 ft 469 kts 136°
2026-05-05 21:24 42.28943 29.71306 35092 ft 469 kts 136°
2026-05-05 21:24 42.24036 29.77125 35109 ft 470 kts 136°
2026-05-05 21:25 42.19132 29.82955 35101 ft 470 kts 136°
2026-05-05 21:25 42.14217 29.88796 35098 ft 471 kts 136°
2026-05-05 21:26 42.09299 29.94620 35097 ft 471 kts 136°
2026-05-05 21:26 42.04374 30.00430 35101 ft 471 kts 136°
2026-05-05 21:27 41.99471 30.06201 35097 ft 471 kts 136°
2026-05-05 21:27 41.94534 30.12015 35093 ft 472 kts 136°
2026-05-05 21:28 41.89592 30.17817 35113 ft 472 kts 136°
2026-05-05 21:28 41.84637 30.23627 35109 ft 472 kts 136°
2026-05-05 21:29 41.79692 30.29409 35099 ft 472 kts 136°
2026-05-05 21:29 41.74734 30.35185 35085 ft 472 kts 136°
2026-05-05 21:30 41.69777 30.40947 35085 ft 472 kts 136°
2026-05-05 21:30 41.64810 30.46703 35086 ft 473 kts 136°
2026-05-05 21:31 41.59841 30.52457 35094 ft 473 kts 136°
2026-05-05 21:31 41.54945 30.58231 35105 ft 473 kts 136°
2026-05-05 21:32 41.50032 30.64061 35100 ft 473 kts 136°
2026-05-05 21:32 41.45107 30.69879 35089 ft 473 kts 136°
2026-05-05 21:33 41.40551 30.76132 35095 ft 470 kts 127°
2026-05-05 21:33 41.36325 30.82779 35100 ft 470 kts 127°
2026-05-05 21:34 41.32091 30.89412 35099 ft 470 kts 128°
2026-05-05 21:34 41.27850 30.96040 35098 ft 471 kts 128°
2026-05-05 21:35 41.23594 31.02666 35111 ft 471 kts 128°
2026-05-05 21:35 41.19346 31.09291 35104 ft 471 kts 128°
2026-05-05 21:36 41.15109 31.15925 35104 ft 471 kts 127°
2026-05-05 21:36 41.10863 31.22556 35103 ft 471 kts 128°
2026-05-05 21:37 41.06614 31.29167 35094 ft 472 kts 128°
2026-05-05 21:37 41.02351 31.35794 35097 ft 472 kts 128°
2026-05-05 21:38 40.98119 31.42358 34959 ft 473 kts 128°
2026-05-05 21:38 40.95959 31.45707 33874 ft 484 kts 128°
2026-05-05 21:38 40.93761 31.49112 32943 ft 488 kts 128°
2026-05-05 21:39 40.91556 31.52518 32040 ft 489 kts 128°
2026-05-05 21:39 40.89349 31.55917 30985 ft 483 kts 128°
2026-05-05 21:39 40.87176 31.59258 29940 ft 476 kts 128°
2026-05-05 21:39 40.85045 31.62539 29148 ft 462 kts 128°
2026-05-05 21:40 40.82985 31.65708 28654 ft 450 kts 128°
2026-05-05 21:40 40.80952 31.68834 28023 ft 448 kts 129°
2026-05-05 21:40 40.78927 31.71942 27415 ft 445 kts 129°
2026-05-05 21:40 40.76916 31.75023 26808 ft 442 kts 129°
2026-05-05 21:41 40.74926 31.78067 26208 ft 440 kts 129°
2026-05-05 21:41 40.72920 31.81131 25601 ft 438 kts 129°
2026-05-05 21:41 40.70935 31.84163 25011 ft 436 kts 129°
2026-05-05 21:41 40.68958 31.87182 24417 ft 434 kts 129°
2026-05-05 21:42 40.66989 31.90191 23831 ft 433 kts 130°
2026-05-05 21:42 40.65030 31.93184 23186 ft 430 kts 130°
2026-05-05 21:42 40.63080 31.96158 22623 ft 426 kts 130°
2026-05-05 21:42 40.61151 31.99094 22077 ft 423 kts 130°
2026-05-05 21:43 40.59237 32.02006 21540 ft 419 kts 130°
2026-05-05 21:43 40.57333 32.04896 21025 ft 416 kts 130°
2026-05-05 21:43 40.55439 32.07765 20514 ft 413 kts 130°
2026-05-05 21:43 40.53560 32.10606 20002 ft 411 kts 130°
2026-05-05 21:44 40.51690 32.13430 19503 ft 408 kts 130°
2026-05-05 21:44 40.49854 32.16203 18996 ft 406 kts 130°
2026-05-05 21:44 40.47982 32.19029 18485 ft 404 kts 130°
2026-05-05 21:44 40.46117 32.21773 17945 ft 401 kts 132°
2026-05-05 21:45 40.44210 32.24413 17448 ft 397 kts 133°
2026-05-05 21:45 40.42284 32.26981 16945 ft 392 kts 134°
2026-05-05 21:45 40.40363 32.29503 16410 ft 389 kts 134°
2026-05-05 21:45 40.38461 32.32003 15893 ft 385 kts 134°
2026-05-05 21:46 40.36584 32.34484 15359 ft 382 kts 134°
2026-05-05 21:46 40.34725 32.36958 14849 ft 379 kts 134°
2026-05-05 21:46 40.32884 32.39417 14317 ft 376 kts 134°
2026-05-05 21:46 40.31061 32.41854 13790 ft 373 kts 134°
2026-05-05 21:47 40.29252 32.44278 13210 ft 370 kts 134°
2026-05-05 21:47 40.27462 32.46678 12684 ft 366 kts 134°
2026-05-05 21:47 40.25711 32.49027 12151 ft 363 kts 135°
2026-05-05 21:47 40.23956 32.51377 11624 ft 359 kts 135°
2026-05-05 21:48 40.22216 32.53701 11090 ft 356 kts 135°
2026-05-05 21:48 40.20487 32.56002 10664 ft 350 kts 135°
2026-05-05 21:48 40.18809 32.58233 10541 ft 336 kts 135°
2026-05-05 21:48 40.17200 32.60374 10413 ft 324 kts 135°
2026-05-05 21:49 40.15646 32.62441 10289 ft 313 kts 135°
2026-05-05 21:49 40.14146 32.64433 10167 ft 303 kts 136°
2026-05-05 21:49 40.12687 32.66370 9998 ft 295 kts 135°
2026-05-05 21:49 40.11249 32.68278 9511 ft 298 kts 135°
2026-05-05 21:50 40.09819 32.70172 9276 ft 293 kts 135°
2026-05-05 21:50 40.08395 32.72057 8944 ft 291 kts 135°
2026-05-05 21:50 40.06975 32.73939 8607 ft 290 kts 135°
2026-05-05 21:50 40.05563 32.75811 8249 ft 289 kts 134°
2026-05-05 21:51 40.04136 32.77706 7535 ft 297 kts 133°
2026-05-05 21:51 40.02931 32.79891 6798 ft 297 kts 116°
2026-05-05 21:51 40.02080 32.82300 6300 ft 288 kts 120°
2026-05-05 21:51 40.00869 32.84343 5806 ft 280 kts 128°
2026-05-05 21:52 40.00294 32.88584 5706 ft 228 kts 57°
2026-05-05 21:52 40.01425 32.89855 5492 ft 212 kts 15°
2026-05-05 21:52 40.02834 32.90221 5257 ft 200 kts 14°
2026-05-05 21:53 40.03937 32.91133 5027 ft 179 kts 44°
2026-05-05 21:53 40.04809 32.92149 4736 ft 161 kts 34°
2026-05-05 21:53 40.05727 32.92905 4527 ft 154 kts 30°
2026-05-05 21:53 40.06612 32.93676 4223 ft 152 kts 36°
2026-05-05 21:54 40.07448 32.94506 3934 ft 152 kts 35°
2026-05-05 21:54 40.08278 32.95322 3744 ft 152 kts 36°
2026-05-05 21:54 40.09129 32.96138 3570 ft 151 kts 33°
2026-05-05 21:54 40.09988 32.96950 3404 ft 152 kts 36°
2026-05-05 21:55 40.10840 32.97765 3205 ft 152 kts 35°
2026-05-05 21:55 40.11685 32.98579 3114 ft 147 kts 35°
2026-05-05 21:55 40.12380 32.99241 3119 ft 99 kts 36°
2026-05-05 21:55 40.12794 32.99638 3123 ft 51 kts 36°
2026-05-05 21:56 40.12988 32.99856 3122 ft 31 kts 51°
2026-05-05 21:56 40.13069 33.00052 3124 ft 15 kts 65°
2026-05-05 21:56 40.13059 33.00173 3123 ft 15 kts 160°
2026-05-05 21:56 40.12962 33.00112 3125 ft 17 kts 215°
2026-05-05 21:57 40.12862 33.00015 3123 ft 19 kts 218°
2026-05-05 21:57 40.12750 32.99908 3123 ft 21 kts 215°
2026-05-05 21:57 40.12628 32.99790 3123 ft 23 kts 217°
2026-05-05 21:57 40.12496 32.99664 3121 ft 24 kts 217°
2026-05-05 21:58 40.12354 32.99527 3120 ft 26 kts 215°
2026-05-05 21:58 40.12201 32.99382 3118 ft 28 kts 217°
2026-05-05 21:58 40.12040 32.99227 3116 ft 30 kts 216°
2026-05-05 21:58 40.11882 32.99077 3114 ft 17 kts 217°
2026-05-05 21:59 40.11781 32.98981 3113 ft 19 kts 217°
2026-05-05 21:59 40.11674 32.98887 3113 ft 14 kts 192°
2026-05-05 21:59 40.11624 32.98982 3113 ft 14 kts 92°
2026-05-05 21:59 40.11668 32.99085 3113 ft 10 kts 55°
2026-05-05 22:00 40.11667 32.99151 3113 ft 4 kts 145°
2026-05-05 22:00 40.11644 32.99171 3113 ft 4 kts 151°
2026-05-05 22:00 40.11635 32.99178 3113 ft 0 kts 151°